Time,TemperatureF,DewpointF,PressureIn,WindDirection,WindDirectionDegrees,WindSpeedMPH,WindSpeedGustMPH,Humidity,HourlyPrecipIn,Conditions,Clouds,dailyrainin,SoftwareType,DateUTC
2013-02-19 00:00:00,27.9,3.1,30.07,NNW,344,0.0,0.0,34,0.00,,,0.00,Wunderground v.1.15,2013-02-19 07:00:00,
2013-02-19 00:05:00,27.7,2.9,30.07,NNW,344,0.0,0.0,34,0.00,,,0.00,Wunderground v.1.15,2013-02-19 07:05:00,
2013-02-19 00:15:00,26.5,1.9,30.07,NNW,344,0.0,0.0,34,0.00,,,0.00,Wunderground v.1.15,2013-02-19 07:15:00,
2013-02-19 00:24:00,26.5,1.2,30.07,NNW,344,0.0,0.0,33,0.00,,,0.00,Wunderground v.1.15,2013-02-19 07:24:00,
2013-02-19 00:29:00,26.9,-0.5,30.08,NNW,344,0.0,0.0,30,0.00,,,0.00,Wunderground v.1.15,2013-02-19 07:29:00,
2013-02-19 00:35:00,26.5,-0.1,30.07,NNW,344,0.0,0.0,31,0.00,,,0.00,Wunderground v.1.15,2013-02-19 07:35:00,
2013-02-19 00:40:00,26.0,0.1,30.07,NNW,344,0.0,0.0,32,0.00,,,0.00,Wunderground v.1.15,2013-02-19 07:40:00,
2013-02-19 00:50:00,25.4,-1.1,30.08,NNW,344,0.0,0.0,31,0.00,,,0.00,Wunderground v.1.15,2013-02-19 07:50:00,
2013-02-19 00:55:00,25.2,-0.6,30.08,NNW,344,0.0,0.0,32,0.00,,,0.00,Wunderground v.1.15,2013-02-19 07:55:00,
2013-02-19 01:00:00,25.3,-0.5,30.08,NNW,344,0.0,0.0,32,0.00,,,0.00,Wunderground v.1.15,2013-02-19 08:00:00,
2013-02-19 01:05:00,25.2,0.1,30.08,NNW,344,0.0,0.0,33,0.00,,,0.00,Wunderground v.1.15,2013-02-19 08:05:00,
2013-02-19 01:14:00,25.6,-3.1,30.09,NNW,344,0.0,0.0,28,0.00,,,0.00,Wunderground v.1.15,2013-02-19 08:14:00,
2013-02-19 01:24:00,26.0,-3.5,30.08,NNW,344,0.0,0.0,27,0.00,,,0.00,Wunderground v.1.15,2013-02-19 08:24:00,
2013-02-19 01:29:00,26.3,-4.8,30.09,NNW,344,0.0,0.0,25,0.00,,,0.00,Wunderground v.1.15,2013-02-19 08:29:00,
2013-02-19 01:35:00,26.4,-4.7,30.08,NNW,344,0.0,0.0,25,0.00,,,0.00,Wunderground v.1.15,2013-02-19 08:35:00,
2013-02-19 01:40:00,26.5,-4.7,30.08,NNW,344,0.0,0.0,25,0.00,,,0.00,Wunderground v.1.15,2013-02-19 08:40:00,
2013-02-19 01:45:00,26.4,-4.7,30.08,NNW,344,0.0,0.0,25,0.00,,,0.00,Wunderground v.1.15,2013-02-19 08:45:00,
2013-02-19 01:55:00,26.2,-4.9,30.08,NNW,344,0.0,0.0,25,0.00,,,0.00,Wunderground v.1.15,2013-02-19 08:55:00,
2013-02-19 02:00:00,26.1,-5.0,30.08,NNW,344,0.0,0.0,25,0.00,,,0.00,Wunderground v.1.15,2013-02-19 09:00:00,
2013-02-19 02:10:00,25.8,-5.3,30.08,NNW,344,0.0,0.0,25,0.00,,,0.00,Wunderground v.1.15,2013-02-19 09:10:00,
2013-02-19 02:15:00,25.9,-5.2,30.08,NNW,344,0.0,0.0,25,0.00,,,0.00,Wunderground v.1.15,2013-02-19 09:15:00,
2013-02-19 02:20:00,25.1,-5.0,30.08,NNW,344,0.0,0.0,26,0.00,,,0.00,Wunderground v.1.15,2013-02-19 09:20:00,
2013-02-19 02:30:00,24.2,-4.3,30.08,NNW,344,0.0,0.0,28,0.00,,,0.00,Wunderground v.1.15,2013-02-19 09:30:00,
2013-02-19 02:35:00,24.2,-5.0,30.08,NNW,344,0.0,0.0,27,0.00,,,0.00,Wunderground v.1.15,2013-02-19 09:35:00,
2013-02-19 02:40:00,24.4,-4.1,30.08,NNW,344,0.0,0.0,28,0.00,,,0.00,Wunderground v.1.15,2013-02-19 09:40:00,
2013-02-19 02:49:00,24.4,-4.9,30.07,NNW,344,0.0,0.0,27,0.00,,,0.00,Wunderground v.1.15,2013-02-19 09:49:00,
2013-02-19 02:54:00,24.5,-4.8,30.07,NNW,344,0.0,0.0,27,0.00,,,0.00,Wunderground v.1.15,2013-02-19 09:54:00,
2013-02-19 03:05:00,22.9,-4.0,30.07,NNW,344,0.0,0.0,30,0.00,,,0.00,Wunderground v.1.15,2013-02-19 10:05:00,
2013-02-19 03:15:00,22.4,0.6,30.07,NNW,344,0.0,0.0,38,0.00,,,0.00,Wunderground v.1.15,2013-02-19 10:15:00,
2013-02-19 03:20:00,21.8,-1.7,30.07,NNW,344,0.0,0.0,35,0.00,,,0.00,Wunderground v.1.15,2013-02-19 10:20:00,
2013-02-19 03:25:00,21.4,-1.5,30.07,NNW,344,0.0,0.0,36,0.00,,,0.00,Wunderground v.1.15,2013-02-19 10:25:00,
2013-02-19 03:34:00,21.4,-2.7,30.07,NNW,344,0.0,0.0,34,0.00,,,0.00,Wunderground v.1.15,2013-02-19 10:34:00,
2013-02-19 03:39:00,21.5,-2.0,30.07,NNW,344,0.0,0.0,35,0.00,,,0.00,Wunderground v.1.15,2013-02-19 10:39:00,
2013-02-19 03:44:00,21.1,-0.6,30.07,NNW,344,0.0,0.0,38,0.00,,,0.00,Wunderground v.1.15,2013-02-19 10:44:00,
2013-02-19 03:50:00,20.5,-1.1,30.07,NNW,344,0.0,0.0,38,0.00,,,0.00,Wunderground v.1.15,2013-02-19 10:50:00,
2013-02-19 03:55:00,20.3,-1.3,30.07,NNW,344,0.0,0.0,38,0.00,,,0.00,Wunderground v.1.15,2013-02-19 10:55:00,
2013-02-19 04:00:00,20.4,-1.8,30.07,NNW,344,0.0,0.0,37,0.00,,,0.00,Wunderground v.1.15,2013-02-19 11:00:00,
2013-02-19 04:05:00,20.5,-1.7,30.07,NNW,344,0.0,0.0,37,0.00,,,0.00,Wunderground v.1.15,2013-02-19 11:05:00,
2013-02-19 04:15:00,20.4,-1.8,30.07,NNW,344,0.0,0.0,37,0.00,,,0.00,Wunderground v.1.15,2013-02-19 11:15:00,
2013-02-19 04:25:00,20.3,-0.8,30.06,NNW,344,0.0,0.0,39,0.00,,,0.00,Wunderground v.1.15,2013-02-19 11:25:00,
2013-02-19 04:30:00,20.7,-2.1,30.07,NNW,344,0.0,0.0,36,0.00,,,0.00,Wunderground v.1.15,2013-02-19 11:30:00,
2013-02-19 04:35:00,20.7,-2.1,30.07,NNW,344,0.0,0.0,36,0.00,,,0.00,Wunderground v.1.15,2013-02-19 11:35:00,
2013-02-19 04:40:00,20.7,-2.1,30.07,NNW,344,0.0,0.0,36,0.00,,,0.00,Wunderground v.1.15,2013-02-19 11:40:00,
2013-02-19 04:50:00,19.7,-1.8,30.07,NNW,344,0.0,0.0,38,0.00,,,0.00,Wunderground v.1.15,2013-02-19 11:50:00,
2013-02-19 04:55:00,19.7,-1.8,30.07,NNW,344,0.0,0.0,38,0.00,,,0.00,Wunderground v.1.15,2013-02-19 11:55:00,
2013-02-19 05:05:00,19.3,-1.7,30.07,NNW,344,0.0,0.0,39,0.00,,,0.00,Wunderground v.1.15,2013-02-19 12:05:00,
2013-02-19 05:15:00,19.9,-0.6,30.07,NNW,344,0.0,0.0,40,0.00,,,0.00,Wunderground v.1.15,2013-02-19 12:15:00,
2013-02-19 05:25:00,20.5,-1.7,30.07,NNW,344,0.0,0.0,37,0.00,,,0.00,Wunderground v.1.15,2013-02-19 12:25:00,
2013-02-19 05:30:00,20.1,-2.1,30.08,NNW,344,0.0,0.0,37,0.00,,,0.00,Wunderground v.1.15,2013-02-19 12:30:00,
2013-02-19 05:35:00,19.6,-1.4,30.08,NNW,344,0.0,0.0,39,0.00,,,0.00,Wunderground v.1.15,2013-02-19 12:35:00,
2013-02-19 05:44:00,18.9,-1.0,30.08,NNW,344,0.0,0.0,41,0.00,,,0.00,Wunderground v.1.15,2013-02-19 12:44:00,
2013-02-19 05:49:00,19.3,-1.7,30.07,NNW,344,0.0,0.0,39,0.00,,,0.00,Wunderground v.1.15,2013-02-19 12:49:00,
2013-02-19 05:59:00,19.3,-2.2,30.08,NNW,344,0.0,0.0,38,0.00,,,0.00,Wunderground v.1.15,2013-02-19 12:59:00,
2013-02-19 06:05:00,19.6,-2.5,30.08,NNW,344,0.0,0.0,37,0.00,,,0.00,Wunderground v.1.15,2013-02-19 13:05:00,
2013-02-19 06:15:00,20.1,-3.2,30.08,NNW,344,0.0,0.0,35,0.00,,,0.00,Wunderground v.1.15,2013-02-19 13:15:00,
2013-02-19 06:20:00,20.3,-3.0,30.08,NNW,344,0.0,0.0,35,0.00,,,0.00,Wunderground v.1.15,2013-02-19 13:20:00,
2013-02-19 06:30:00,20.1,-3.2,30.09,NNW,344,0.0,0.0,35,0.00,,,0.00,Wunderground v.1.15,2013-02-19 13:30:00,
2013-02-19 06:35:00,19.7,-3.0,30.09,NNW,344,0.0,0.0,36,0.00,,,0.00,Wunderground v.1.15,2013-02-19 13:35:00,
2013-02-19 06:40:00,19.9,-2.8,30.09,NNW,344,0.0,0.0,36,0.00,,,0.00,Wunderground v.1.15,2013-02-19 13:40:00,
2013-02-19 06:49:00,20.9,-2.5,30.08,NNW,344,0.0,0.0,35,0.00,,,0.00,Wunderground v.1.15,2013-02-19 13:49:00,
2013-02-19 06:55:00,21.0,-3.7,30.08,NNW,344,0.0,0.0,33,0.00,,,0.00,Wunderground v.1.15,2013-02-19 13:55:00,
2013-02-19 07:05:00,21.5,-2.6,30.08,NNW,344,0.0,0.0,34,0.00,,,0.00,Wunderground v.1.15,2013-02-19 14:05:00,
2013-02-19 07:15:00,22.1,-2.7,30.08,NNW,344,0.0,0.0,33,0.00,,,0.00,Wunderground v.1.15,2013-02-19 14:15:00,
2013-02-19 07:20:00,22.3,-3.1,30.08,NNW,344,0.0,0.0,32,0.00,,,0.00,Wunderground v.1.15,2013-02-19 14:20:00,
2013-02-19 07:29:00,23.6,-2.7,30.08,NNW,344,0.0,0.0,31,0.00,,,0.00,Wunderground v.1.15,2013-02-19 14:29:00,
2013-02-19 07:39:00,25.7,-2.2,30.09,NNE,13,3.0,4.0,29,0.00,,,0.00,Wunderground v.1.15,2013-02-19 14:39:00,
2013-02-19 07:44:00,26.5,-2.3,30.09,North,11,2.0,5.0,28,0.00,,,0.00,Wunderground v.1.15,2013-02-19 14:44:00,
2013-02-19 07:49:00,27.3,-1.6,30.08,NNE,21,2.0,5.0,28,0.00,,,0.00,Wunderground v.1.15,2013-02-19 14:49:00,
2013-02-19 07:55:00,28.2,-1.6,30.09,NNE,21,3.0,6.0,27,0.00,,,0.00,Wunderground v.1.15,2013-02-19 14:55:00,
2013-02-19 08:00:00,28.7,-1.1,30.09,NNE,19,3.0,3.0,27,0.00,,,0.00,Wunderground v.1.15,2013-02-19 15:00:00,
2013-02-19 08:05:00,29.1,-0.8,30.10,North,360,3.0,4.0,27,0.00,,,0.00,Wunderground v.1.15,2013-02-19 15:05:00,
2013-02-19 08:15:00,29.4,-0.5,30.10,NNE,20,3.0,3.0,27,0.00,,,0.00,Wunderground v.1.15,2013-02-19 15:15:00,
2013-02-19 08:20:00,29.7,-1.1,30.09,NNE,28,2.0,4.0,26,0.00,,,0.00,Wunderground v.1.15,2013-02-19 15:20:00,
2013-02-19 08:25:00,30.5,-0.4,30.09,NNE,12,3.0,4.0,26,0.00,,,0.00,Wunderground v.1.15,2013-02-19 15:25:00,
2013-02-19 08:34:00,31.4,-0.4,30.09,NNE,27,3.0,3.0,25,0.00,,,0.00,Wunderground v.1.15,2013-02-19 15:34:00,
2013-02-19 08:39:00,31.7,0.7,30.08,NNE,27,2.0,2.0,26,0.00,,,0.00,Wunderground v.1.15,2013-02-19 15:39:00,
2013-02-19 08:49:00,33.8,1.6,30.09,NNE,26,0.0,3.0,25,0.00,,,0.00,Wunderground v.1.15,2013-02-19 15:49:00,
2013-02-19 08:55:00,34.0,0.9,30.09,NNE,13,1.0,3.0,24,0.00,,,0.00,Wunderground v.1.15,2013-02-19 15:55:00,
2013-02-19 09:00:00,34.0,0.9,30.09,North,5,3.0,3.0,24,0.00,,,0.00,Wunderground v.1.15,2013-02-19 16:00:00,
2013-02-19 09:05:00,34.2,1.1,30.09,North,360,3.0,3.0,24,0.00,,,0.00,Wunderground v.1.15,2013-02-19 16:05:00,
2013-02-19 09:14:00,35.6,1.4,30.09,North,5,2.0,2.0,23,0.00,,,0.00,Wunderground v.1.15,2013-02-19 16:14:00,
2013-02-19 09:24:00,36.7,0.4,30.08,NNE,19,4.0,5.0,21,0.00,,,0.00,Wunderground v.1.15,2013-02-19 16:24:00,
2013-02-19 09:29:00,36.7,0.4,30.08,North,9,3.0,3.0,21,0.00,,,0.00,Wunderground v.1.15,2013-02-19 16:29:00,
2013-02-19 09:34:00,36.6,0.3,30.08,NE,34,2.0,3.0,21,0.00,,,0.00,Wunderground v.1.15,2013-02-19 16:34:00,
2013-02-19 09:40:00,36.5,0.2,30.08,NNE,22,1.0,1.0,21,0.00,,,0.00,Wunderground v.1.15,2013-02-19 16:40:00,
2013-02-19 09:45:00,36.4,0.1,30.08,NNE,20,1.0,3.0,21,0.00,,,0.00,Wunderground v.1.15,2013-02-19 16:45:00,
2013-02-19 09:50:00,36.4,1.1,30.07,NNE,18,2.0,2.0,22,0.00,,,0.00,Wunderground v.1.15,2013-02-19 16:50:00,
2013-02-19 09:55:00,36.7,1.4,30.07,NNE,18,2.0,3.0,22,0.00,,,0.00,Wunderground v.1.15,2013-02-19 16:55:00,
2013-02-19 10:00:00,38.0,2.5,30.07,NNE,14,1.0,3.0,22,0.00,,,0.00,Wunderground v.1.15,2013-02-19 17:00:00,
2013-02-19 10:05:00,39.2,1.4,30.06,NNE,15,3.0,3.0,20,0.00,,,0.00,Wunderground v.1.15,2013-02-19 17:05:00,
2013-02-19 10:14:00,41.4,3.3,30.06,North,11,1.0,2.0,20,0.00,,,0.00,Wunderground v.1.15,2013-02-19 17:14:00,
2013-02-19 10:19:00,42.1,1.6,30.06,NE,53,1.0,3.0,18,0.00,,,0.00,Wunderground v.1.15,2013-02-19 17:19:00,
2013-02-19 10:29:00,41.7,0.0,30.05,NNE,15,4.0,4.0,17,0.00,,,0.00,Wunderground v.1.15,2013-02-19 17:29:00,
2013-02-19 10:34:00,41.6,1.1,30.05,North,5,3.0,4.0,18,0.00,,,0.00,Wunderground v.1.15,2013-02-19 17:34:00,
2013-02-19 10:40:00,43.2,-0.1,30.04,North,10,2.0,3.0,16,0.00,,,0.00,Wunderground v.1.15,2013-02-19 17:40:00,
2013-02-19 10:45:00,43.8,0.4,30.04,NNE,17,2.0,4.0,16,0.00,,,0.00,Wunderground v.1.15,2013-02-19 17:45:00,
2013-02-19 10:50:00,44.2,0.8,30.03,NNE,15,2.0,2.0,16,0.00,,,0.00,Wunderground v.1.15,2013-02-19 17:50:00,
2013-02-19 10:55:00,45.1,1.5,30.03,NNE,32,1.0,3.0,16,0.00,,,0.00,Wunderground v.1.15,2013-02-19 17:55:00,
2013-02-19 11:00:00,45.8,0.7,30.03,North,5,1.0,4.0,15,0.00,,,0.00,Wunderground v.1.15,2013-02-19 18:00:00,
2013-02-19 11:05:00,46.8,1.5,30.03,North,5,2.0,4.0,15,0.00,,,0.00,Wunderground v.1.15,2013-02-19 18:05:00,
2013-02-19 11:14:00,48.0,1.0,30.01,North,11,1.0,3.0,14,0.00,,,0.00,Wunderground v.1.15,2013-02-19 18:14:00,
2013-02-19 11:19:00,48.6,-0.1,30.00,ENE,59,1.0,1.0,13,0.00,,,0.00,Wunderground v.1.15,2013-02-19 18:19:00,
2013-02-19 11:25:00,48.7,-0.1,29.99,NNE,24,1.0,2.0,13,0.00,,,0.00,Wunderground v.1.15,2013-02-19 18:25:00,
2013-02-19 11:30:00,48.5,-1.9,29.99,NNE,19,2.0,2.0,12,0.00,,,0.00,Wunderground v.1.15,2013-02-19 18:30:00,
2013-02-19 11:40:00,49.6,0.7,29.99,NE,49,1.0,1.0,13,0.00,,,0.00,Wunderground v.1.15,2013-02-19 18:40:00,
2013-02-19 11:45:00,49.3,-1.3,29.98,NE,49,0.0,1.0,12,0.00,,,0.00,Wunderground v.1.15,2013-02-19 18:45:00,
2013-02-19 11:50:00,50.0,-0.7,29.98,NNW,348,0.0,0.0,12,0.00,,,0.00,Wunderground v.1.15,2013-02-19 18:50:00,
2013-02-19 11:59:00,51.5,-1.4,29.96,North,350,0.0,0.0,11,0.00,,,0.00,Wunderground v.1.15,2013-02-19 18:59:00,
2013-02-19 12:05:00,51.5,-1.4,29.96,East,96,0.0,0.0,11,0.00,,,0.00,Wunderground v.1.15,2013-02-19 19:05:00,
2013-02-19 12:15:00,52.8,1.5,29.94,East,101,0.0,0.0,12,0.00,,,0.00,Wunderground v.1.15,2013-02-19 19:15:00,
2013-02-19 12:20:00,52.8,1.5,29.94,ENE,59,0.0,0.0,12,0.00,,,0.00,Wunderground v.1.15,2013-02-19 19:20:00,
2013-02-19 12:25:00,53.3,1.9,29.93,ENE,59,0.0,0.0,12,0.00,,,0.00,Wunderground v.1.15,2013-02-19 19:25:00,
2013-02-19 12:30:00,53.4,2.0,29.93,ENE,57,0.0,0.0,12,0.00,,,0.00,Wunderground v.1.15,2013-02-19 19:30:00,
2013-02-19 12:35:00,52.9,-0.3,29.92,NE,38,0.0,0.0,11,0.00,,,0.00,Wunderground v.1.15,2013-02-19 19:35:00,
2013-02-19 12:45:00,54.0,2.4,29.91,South,172,1.0,1.0,12,0.00,,,0.00,Wunderground v.1.15,2013-02-19 19:45:00,
2013-02-19 12:54:00,55.9,2.0,29.90,SW,223,1.0,1.0,11,0.00,,,0.00,Wunderground v.1.15,2013-02-19 19:54:00,
2013-02-19 12:59:00,56.2,4.2,29.90,SW,219,1.0,1.0,12,0.00,,,0.00,Wunderground v.1.15,2013-02-19 19:59:00,
2013-02-19 13:05:00,57.1,4.9,29.89,SSW,200,1.0,3.0,12,0.00,,,0.00,Wunderground v.1.15,2013-02-19 20:05:00,
2013-02-19 13:15:00,56.9,2.8,29.88,ESE,121,2.0,4.0,11,0.00,,,0.00,Wunderground v.1.15,2013-02-19 20:15:00,
2013-02-19 13:20:00,56.8,2.7,29.88,SW,216,2.0,4.0,11,0.00,,,0.00,Wunderground v.1.15,2013-02-19 20:20:00,
2013-02-19 13:25:00,56.7,2.7,29.87,SSE,157,3.0,4.0,11,0.00,,,0.00,Wunderground v.1.15,2013-02-19 20:25:00,
2013-02-19 13:30:00,56.1,2.2,29.87,South,190,3.0,3.0,11,0.00,,,0.00,Wunderground v.1.15,2013-02-19 20:30:00,
2013-02-19 13:35:00,56.0,4.0,29.87,South,190,2.0,3.0,12,0.00,,,0.00,Wunderground v.1.15,2013-02-19 20:35:00,
2013-02-19 13:44:00,57.8,3.5,29.85,East,90,2.0,2.0,11,0.00,,,0.00,Wunderground v.1.15,2013-02-19 20:44:00,
2013-02-19 13:54:00,58.0,3.7,29.84,SSE,152,2.0,2.0,11,0.00,,,0.00,Wunderground v.1.15,2013-02-19 20:54:00,
2013-02-19 13:59:00,58.7,4.2,29.84,WSW,242,2.0,5.0,11,0.00,,,0.00,Wunderground v.1.15,2013-02-19 20:59:00,
2013-02-19 14:05:00,58.9,4.4,29.84,SSW,194,3.0,10.0,11,0.00,,,0.00,Wunderground v.1.15,2013-02-19 21:05:00,
2013-02-19 14:15:00,58.5,4.1,29.83,SW,215,4.0,4.0,11,0.00,,,0.00,Wunderground v.1.15,2013-02-19 21:15:00,
2013-02-19 14:20:00,58.6,4.1,29.83,South,170,4.0,4.0,11,0.00,,,0.00,Wunderground v.1.15,2013-02-19 21:20:00,
2013-02-19 14:30:00,58.7,4.2,29.82,SSW,203,3.0,3.0,11,0.00,,,0.00,Wunderground v.1.15,2013-02-19 21:30:00,
2013-02-19 14:35:00,59.3,4.7,29.81,SSW,192,3.0,3.0,11,0.00,,,0.00,Wunderground v.1.15,2013-02-19 21:35:00,
2013-02-19 14:44:00,59.6,4.9,29.81,SSW,209,3.0,3.0,11,0.00,,,0.00,Wunderground v.1.15,2013-02-19 21:44:00,
2013-02-19 14:49:00,58.7,4.2,29.80,SW,236,4.0,10.0,11,0.00,,,0.00,Wunderground v.1.15,2013-02-19 21:49:00,
2013-02-19 14:54:00,58.4,4.0,29.80,SSW,199,5.0,10.0,11,0.00,,,0.00,Wunderground v.1.15,2013-02-19 21:54:00,
2013-02-19 15:05:00,58.4,4.0,29.79,SSW,208,4.0,5.0,11,0.00,,,0.00,Wunderground v.1.15,2013-02-19 22:05:00,
2013-02-19 15:15:00,60.1,5.3,29.78,SSW,206,2.0,6.0,11,0.00,,,0.00,Wunderground v.1.15,2013-02-19 22:15:00,
2013-02-19 15:20:00,60.5,5.6,29.78,SW,217,2.0,2.0,11,0.00,,,0.00,Wunderground v.1.15,2013-02-19 22:20:00,
2013-02-19 15:29:00,60.5,5.6,29.77,SSW,201,4.0,4.0,11,0.00,,,0.00,Wunderground v.1.15,2013-02-19 22:29:00,
2013-02-19 15:39:00,60.4,5.6,29.77,SSW,201,3.0,6.0,11,0.00,,,0.00,Wunderground v.1.15,2013-02-19 22:39:00,
2013-02-19 15:45:00,60.0,5.2,29.77,SSW,192,4.0,6.0,11,0.00,,,0.00,Wunderground v.1.15,2013-02-19 22:45:00,
2013-02-19 15:50:00,59.8,5.1,29.77,WSW,249,5.0,5.0,11,0.00,,,0.00,Wunderground v.1.15,2013-02-19 22:50:00,
2013-02-19 15:55:00,59.8,5.1,29.77,WSW,239,4.0,5.0,11,0.00,,,0.00,Wunderground v.1.15,2013-02-19 22:55:00,
2013-02-19 16:00:00,60.0,5.2,29.77,SW,216,3.0,3.0,11,0.00,,,0.00,Wunderground v.1.15,2013-02-19 23:00:00,
2013-02-19 16:05:00,59.9,5.2,29.76,SSW,205,2.0,5.0,11,0.00,,,0.00,Wunderground v.1.15,2013-02-19 23:05:00,
2013-02-19 16:15:00,59.8,5.1,29.76,South,188,2.0,5.0,11,0.00,,,0.00,Wunderground v.1.15,2013-02-19 23:15:00,
2013-02-19 16:24:00,59.8,7.0,29.75,WSW,240,2.0,3.0,12,0.00,,,0.00,Wunderground v.1.15,2013-02-19 23:24:00,
2013-02-19 16:29:00,59.8,8.8,29.75,SSW,207,2.0,6.0,13,0.00,,,0.00,Wunderground v.1.15,2013-02-19 23:29:00,
2013-02-19 16:34:00,59.7,8.7,29.75,South,184,5.0,6.0,13,0.00,,,0.00,Wunderground v.1.15,2013-02-19 23:34:00,
2013-02-19 16:44:00,59.3,10.0,29.75,South,178,6.0,7.0,14,0.00,,,0.00,Wunderground v.1.15,2013-02-19 23:44:00,
2013-02-19 16:50:00,59.1,11.4,29.74,SSW,212,6.0,6.0,15,0.00,,,0.00,Wunderground v.1.15,2013-02-19 23:50:00,
2013-02-19 16:55:00,58.7,11.1,29.75,SSW,205,6.0,9.0,15,0.00,,,0.00,Wunderground v.1.15,2013-02-19 23:55:00,
2013-02-19 17:00:00,58.3,12.2,29.75,SSW,201,6.0,6.0,16,0.00,,,0.00,Wunderground v.1.15,2013-02-20 00:00:00,
2013-02-19 17:05:00,57.8,13.2,29.75,SW,215,6.0,6.0,17,0.00,,,0.00,Wunderground v.1.15,2013-02-20 00:05:00,
2013-02-19 17:15:00,56.9,15.0,29.75,South,173,5.0,7.0,19,0.00,,,0.00,Wunderground v.1.15,2013-02-20 00:15:00,
2013-02-19 17:24:00,56.6,18.1,29.75,South,189,7.0,7.0,22,0.00,,,0.00,Wunderground v.1.15,2013-02-20 00:24:00,
2013-02-19 17:29:00,56.4,19.0,29.75,SW,214,7.0,8.0,23,0.00,,,0.00,Wunderground v.1.15,2013-02-20 00:29:00,
2013-02-19 17:34:00,56.2,19.8,29.75,SSW,203,7.0,8.0,24,0.00,,,0.00,Wunderground v.1.15,2013-02-20 00:34:00,
2013-02-19 17:40:00,55.9,19.6,29.75,SSW,202,5.0,5.0,24,0.00,,,0.00,Wunderground v.1.15,2013-02-20 00:40:00,
2013-02-19 17:45:00,55.5,21.1,29.74,SSE,165,4.0,5.0,26,0.00,,,0.00,Wunderground v.1.15,2013-02-20 00:45:00,
2013-02-19 17:55:00,55.1,22.5,29.73,South,189,5.0,6.0,28,0.00,,,0.00,Wunderground v.1.15,2013-02-20 00:55:00,
2013-02-19 18:00:00,55.1,22.5,29.73,South,171,6.0,6.0,28,0.00,,,0.00,Wunderground v.1.15,2013-02-20 01:00:00,
2013-02-19 18:05:00,55.1,23.4,29.74,South,188,7.0,10.0,29,0.00,,,0.00,Wunderground v.1.15,2013-02-20 01:05:00,
2013-02-19 18:14:00,55.1,23.4,29.74,South,184,7.0,8.0,29,0.00,,,0.00,Wunderground v.1.15,2013-02-20 01:14:00,
2013-02-19 18:19:00,54.9,23.2,29.74,SSW,202,6.0,6.0,29,0.00,,,0.00,Wunderground v.1.15,2013-02-20 01:19:00,
2013-02-19 18:29:00,54.5,23.7,29.74,South,180,5.0,5.0,30,0.00,,,0.00,Wunderground v.1.15,2013-02-20 01:29:00,
2013-02-19 18:34:00,54.2,24.2,29.74,SSW,211,6.0,8.0,31,0.00,,,0.00,Wunderground v.1.15,2013-02-20 01:34:00,
2013-02-19 18:40:00,54.0,25.5,29.73,SSW,202,6.0,6.0,33,0.00,,,0.00,Wunderground v.1.15,2013-02-20 01:40:00,
2013-02-19 18:45:00,53.7,27.4,29.73,SSW,198,7.0,7.0,36,0.00,,,0.00,Wunderground v.1.15,2013-02-20 01:45:00,
2013-02-19 18:50:00,53.7,28.0,29.73,SW,215,7.0,7.0,37,0.00,,,0.00,Wunderground v.1.15,2013-02-20 01:50:00,
2013-02-19 19:00:00,53.4,29.0,29.73,SSW,196,7.0,7.0,39,0.00,,,0.00,Wunderground v.1.15,2013-02-20 02:00:00,
2013-02-19 19:05:00,53.2,29.5,29.73,South,188,8.0,8.0,40,0.00,,,0.00,Wunderground v.1.15,2013-02-20 02:05:00,
2013-02-19 19:14:00,52.7,31.4,29.73,SW,215,8.0,13.0,44,0.00,,,0.00,Wunderground v.1.15,2013-02-20 02:14:00,
2013-02-19 19:19:00,52.7,32.5,29.73,South,190,9.0,9.0,46,0.00,,,0.00,Wunderground v.1.15,2013-02-20 02:19:00,
2013-02-19 19:24:00,52.5,32.3,29.73,South,185,9.0,9.0,46,0.00,,,0.00,Wunderground v.1.15,2013-02-20 02:24:00,
2013-02-19 19:34:00,52.1,33.0,29.74,SSE,159,6.0,8.0,48,0.00,,,0.00,Wunderground v.1.15,2013-02-20 02:34:00,
2013-02-19 19:40:00,51.7,33.6,29.73,SSW,198,7.0,7.0,50,0.00,,,0.00,Wunderground v.1.15,2013-02-20 02:40:00,
2013-02-19 19:45:00,51.3,33.8,29.74,South,180,7.0,7.0,51,0.00,,,0.00,Wunderground v.1.15,2013-02-20 02:45:00,
2013-02-19 19:50:00,51.3,33.3,29.74,SSW,206,7.0,8.0,50,0.00,,,0.00,Wunderground v.1.15,2013-02-20 02:50:00,
2013-02-19 19:55:00,51.2,33.7,29.74,South,180,7.0,8.0,51,0.00,,,0.00,Wunderground v.1.15,2013-02-20 02:55:00,
2013-02-19 20:00:00,51.0,33.0,29.73,South,173,6.0,13.0,50,0.00,,,0.00,Wunderground v.1.15,2013-02-20 03:00:00,
2013-02-19 20:05:00,51.0,33.0,29.73,SSE,155,7.0,13.0,50,0.00,,,0.00,Wunderground v.1.15,2013-02-20 03:05:00,
2013-02-19 20:14:00,51.1,33.1,29.73,SSW,202,8.0,8.0,50,0.00,,,0.00,Wunderground v.1.15,2013-02-20 03:14:00,
2013-02-19 20:19:00,50.9,32.9,29.73,South,186,7.0,7.0,50,0.00,,,0.00,Wunderground v.1.15,2013-02-20 03:19:00,
2013-02-19 20:24:00,50.8,33.3,29.73,SSW,198,6.0,10.0,51,0.00,,,0.00,Wunderground v.1.15,2013-02-20 03:24:00,
2013-02-19 20:30:00,50.6,33.1,29.73,SSW,195,7.0,7.0,51,0.00,,,0.00,Wunderground v.1.15,2013-02-20 03:30:00,
2013-02-19 20:35:00,50.5,33.5,29.74,SSW,211,6.0,7.0,52,0.00,,,0.00,Wunderground v.1.15,2013-02-20 03:35:00,
2013-02-19 20:45:00,50.2,33.7,29.74,SSW,200,6.0,12.0,53,0.00,,,0.00,Wunderground v.1.15,2013-02-20 03:45:00,
2013-02-19 20:50:00,50.1,33.6,29.74,South,173,6.0,6.0,53,0.00,,,0.00,Wunderground v.1.15,2013-02-20 03:50:00,
2013-02-19 20:55:00,49.9,33.9,29.74,SSW,212,7.0,7.0,54,0.00,,,0.00,Wunderground v.1.15,2013-02-20 03:55:00,
2013-02-19 21:00:00,49.9,33.9,29.75,South,171,7.0,7.0,54,0.00,,,0.00,Wunderground v.1.15,2013-02-20 04:00:00,
2013-02-19 21:05:00,49.8,34.3,29.74,South,178,7.0,7.0,55,0.00,,,0.00,Wunderground v.1.15,2013-02-20 04:05:00,
2013-02-19 21:14:00,49.6,34.5,29.74,South,189,5.0,11.0,56,0.00,,,0.00,Wunderground v.1.15,2013-02-20 04:14:00,
2013-02-19 21:19:00,49.6,34.5,29.74,SSW,199,6.0,6.0,56,0.00,,,0.00,Wunderground v.1.15,2013-02-20 04:19:00,
2013-02-19 21:24:00,49.4,34.3,29.74,SW,219,5.0,10.0,56,0.00,,,0.00,Wunderground v.1.15,2013-02-20 04:24:00,
2013-02-19 21:29:00,49.4,34.3,29.74,West,268,4.0,7.0,56,0.00,,,0.00,Wunderground v.1.15,2013-02-20 04:29:00,
2013-02-19 21:35:00,49.3,34.7,29.74,SSW,200,6.0,7.0,57,0.00,,,0.00,Wunderground v.1.15,2013-02-20 04:35:00,
2013-02-19 21:40:00,49.1,34.5,29.74,SSW,205,5.0,5.0,57,0.00,,,0.00,Wunderground v.1.15,2013-02-20 04:40:00,
2013-02-19 21:50:00,48.7,34.6,29.74,SSW,210,6.0,6.0,58,0.00,,,0.00,Wunderground v.1.15,2013-02-20 04:50:00,
2013-02-19 21:55:00,48.3,34.6,29.75,SSW,200,5.0,6.0,59,0.00,,,0.00,Wunderground v.1.15,2013-02-20 04:55:00,
2013-02-19 22:00:00,48.0,34.8,29.74,SSW,201,4.0,4.0,60,0.00,,,0.00,Wunderground v.1.15,2013-02-20 05:00:00,
2013-02-19 22:05:00,47.8,35.0,29.74,SSW,201,5.0,8.0,61,0.00,,,0.00,Wunderground v.1.15,2013-02-20 05:05:00,
2013-02-19 22:14:00,47.4,35.0,29.74,SSW,198,5.0,7.0,62,0.00,,,0.00,Wunderground v.1.15,2013-02-20 05:14:00,
2013-02-19 22:24:00,47.0,35.0,29.74,SSW,196,4.0,7.0,63,0.00,,,0.00,Wunderground v.1.15,2013-02-20 05:24:00,
2013-02-19 22:29:00,46.9,35.0,29.74,SSW,196,2.0,4.0,63,0.00,,,0.00,Wunderground v.1.15,2013-02-20 05:29:00,
2013-02-19 22:35:00,46.9,35.4,29.74,SW,214,3.0,4.0,64,0.00,,,0.00,Wunderground v.1.15,2013-02-20 05:35:00,
2013-02-19 22:40:00,46.9,35.4,29.74,SSW,211,3.0,3.0,64,0.00,,,0.00,Wunderground v.1.15,2013-02-20 05:40:00,
2013-02-19 22:45:00,46.7,35.2,29.74,SSW,211,2.0,3.0,64,0.00,,,0.00,Wunderground v.1.15,2013-02-20 05:45:00,
2013-02-19 22:50:00,46.5,35.0,29.74,SSW,199,2.0,4.0,64,0.00,,,0.00,Wunderground v.1.15,2013-02-20 05:50:00,
2013-02-19 23:00:00,46.5,35.0,29.74,SSE,166,3.0,3.0,64,0.00,,,0.00,Wunderground v.1.15,2013-02-20 06:00:00,
2013-02-19 23:05:00,46.5,35.0,29.74,SSE,166,3.0,5.0,64,0.00,,,0.00,Wunderground v.1.15,2013-02-20 06:05:00,
2013-02-19 23:14:00,46.6,35.5,29.74,South,188,4.0,4.0,65,0.00,,,0.00,Wunderground v.1.15,2013-02-20 06:14:00,
2013-02-19 23:19:00,46.6,35.5,29.73,SSW,211,4.0,7.0,65,0.00,,,0.00,Wunderground v.1.15,2013-02-20 06:19:00,
2013-02-19 23:25:00,46.4,35.3,29.73,SSW,202,3.0,7.0,65,0.00,,,0.00,Wunderground v.1.15,2013-02-20 06:25:00,
2013-02-19 23:35:00,46.1,35.4,29.73,SSW,193,3.0,3.0,66,0.00,,,0.00,Wunderground v.1.15,2013-02-20 06:35:00,
2013-02-19 23:40:00,46.0,35.3,29.72,SE,142,3.0,3.0,66,0.00,,,0.00,Wunderground v.1.15,2013-02-20 06:40:00,
2013-02-19 23:45:00,45.9,35.2,29.73,SSW,211,4.0,4.0,66,0.00,,,0.00,Wunderground v.1.15,2013-02-20 06:45:00,
2013-02-19 23:50:00,45.9,35.2,29.73,South,191,4.0,4.0,66,0.00,,,0.00,Wunderground v.1.15,2013-02-20 06:50:00,
2013-02-19 23:55:00,45.9,35.2,29.73,SSW,200,3.0,4.0,66,0.00,,,0.00,Wunderground v.1.15,2013-02-20 06:55:00,